Tracking 32139 objects as of 16-Nov-2025
HD Live streaming from Space Station
objects crossing your sky now

STARLINK-35092

Track STARLINK-35092 now!
10-day predictions
STARLINK-35092 is classified as:


NORAD ID: 65342
Int'l Code: 2025-189V
Perigee: 454.0 km
Apogee: 454.6 km
Inclination: 53.2 °
Period: 93.5 minutes
Semi major axis: 6825 km
RCS: Unknown
Launch date: August 27, 2025
Source: United States (US)
Launch site: AIR FORCE EASTERN TEST RANGE (AFETR)
Your satellite tracking list
Your tracking list is empty




NASA's NSSDC Master Catalog

Two Line Element Set (TLE):
1 65342U 25189V   25318.19042037  .00089087  00000-0  22100-2 0  9999
2 65342  53.1606  23.2097 0000407   9.1158 350.9854 15.39636912 13330
Source of the keplerian elements: AFSPC